Temperature
20 19 18 18 17 17 17 17 17 16 16 16 16 16 16 16 16 15 15 15 15 15 15 15 14 14 14 14 14 14 14 14 14 14 14 13 13 13 14 14 14 14 14
21 19 18 18 17 17 17 17 16 16 16 16 16 16 16 16 15 15 15 15 15 14 14 14 14 14 14 14 14 14 14 14 14 13 14 13 13 13 13 13 13 13 13
20 19 19 18 17 17 17 16 16 16 16 16 16 16 15 15 15 15 14 14 14 14 14 14 14 14 14 14 14 14 14 14 13 13 13 13 13 13 13 13 13 13 13
20 19 19 18 18 17 17 16 16 16 16 16 15 15 15 15 15 14 14 14 14 14 14 14 14 14 14 13 13 13 13 13 13 13 13 13 13 13 13 13 13 13 13
20 19 19 18 18 17 17 16 16 16 16 16 15 15 15 15 14 14 14 14 14 13 13 14 14 14 14 13 13 13 13 13 13 13 13 13 13 12 12 13 13 13 13
20 19 19 18 18 17 17 16 16 16 16 15 15 15 15 14 14 14 14 14 13 13 13 13 14 14 13 13 13 13 13 13 13 13 13 12 12 12 12 12 12 12 12
20 19 19 18 17 17 16 16 16 16 15 15 15 15 15 14 14 14 14 14 13 13 13 13 13 13 13 13 13 13 13 13 13 13 12 12 12 12 12 12 12 12 12
20 19 18 18 17 17 16 16 16 15 15 15 15 15 15 14 14 14 14 13 13 13 13 13 13 13 13 13 13 13 13 12 12 12 12 12 12 12 12 12 12 12 12
19 19 18 17 17 17 16 16 15 15 15 15 15 15 14 14 14 13 13 13 13 13 13 13 13 13 13 13 13 13 12 12 12 12 12 12 12 12 12 12 12 12 11
18 18 18 17 17 16 16 16 15 15 15 15 15 14 14 14 13 13 13 13 13 13 13 13 13 13 13 13 13 12 12 12 12 12 12 12 12 12 12 12 12 12 11
17 17 17 17 17 16 16 16 15 15 15 15 14 14 14 14 13 13 13 13 13 13 13 13 13 13 13 12 12 12 12 12 12 12 12 12 12 11 11 12 12 11 11
17 17 17 17 17 16 16 15 15 15 15 14 14 14 14 14 13 13 13 13 13 12 12 12 13 13 12 12 12 12 12 12 12 12 12 12 11 11 11 11 11 11 11
18 17 17 17 16 16 16 16 15 15 15 14 14 14 14 13 13 13 13 13 12 12 12 12 12 12 12 12 12 12 12 12 12 12 12 11 11 11 11 11 11 11 11
17 17 17 17 16 16 16 16 15 15 15 14 14 14 14 13 13 13 13 13 13 13 13 12 12 12 12 12 12 12 12 12 12 12 11 11 11 11 11 11 11 11 11
17 17 17 17 16 16 16 16 15 15 15 15 14 14 14 14 14 13 13 13 13 13 13 12 12 12 12 12 12 12 12 11 11 11 11 11 11 11 11 11 11 11 11
18 17 17 17 17 16 16 16 16 15 15 15 14 14 14 14 13 13 13 13 13 13 12 12 12 12 12 12 12 12 11 11 11 11 11 11 11 11 11 11 11 10 10
18 18 17 17 16 16 16 16 16 15 15 15 15 14 14 14 13 13 13 13 13 12 12 12 12 12 11 11 11 11 11 11 11 11 11 11 11 11 10 10 10 10 10
18 18 17 17 16 16 16 16 15 15 15 15 15 14 14 14 13 13 13 13 13 12 12 12 12 11 11 11 11 11 11 11 11 11 11 11 11 10 10 10 10 10 10
17 17 17 17 16 16 16 16 15 15 15 15 15 14 14 14 13 13 13 13 13 12 12 12 11 11 11 11 11 11 11 11 11 11 10 11 10 10 10 10 10 10 10
17 17 17 17 16 16 16 15 14 14 14 14 14 14 14 13 13 13 12 12 12 12 12 11 11 11 11 11 11 11 11 10 10 10 10 10 10 10 10 10 11 10 10
17 17 17 16 16 16 15 15 14 14 14 14 14 14 14 13 13 13 12 12 12 12 12 12 11 11 11 10 10 10 10 10 10 10 10 10 11 11 11 11 11 11 11
16 16 16 16 16 16 16 15 15 15 14 14 14 14 13 13 13 12 12 12 12 12 12 11 11 11 11 10 10 9 9 10 10 11 11 11 11 11 11 11 11 11 11
16 16 16 16 16 16 16 15 15 14 13 13 13 13 13 13 13 13 12 12 12 12 12 11 11 11 11 10 10 10 9 10 10 11 11 11 11 11 11 11 11 11 11
15 15 16 16 16 16 15 15 15 14 14 14 14 14 14 13 13 13 12 12 12 12 12 11 11 11 11 10 10 10 10 11 10 10 11 11 11 11 11 11 11 11 11
14 15 15 15 15 15 15 15 15 14 14 14 14 13 13 13 13 13 12 12 12 12 12 11 11 11 11 10 10 10 10 10 10 10 10 11 11 11 11 11 11 11 11
14 14 14 15 15 15 15 14 14 14 14 14 13 13 13 13 12 12 12 12 12 12 11 11 11 11 11 10 10 10 10 10 10 10 10 10 11 11 11 11 11 11 10
Wind_Speed
7 12 20 20 20 19 19 18 18 17 16 16 15 15 15 15 15 15 15 14 14 14 14 14 14 14 14 14 14 14 14 13 13 13 13 14 14 14 14 14 13 12 14
12 17 21 21 20 19 19 18 18 17 17 16 16 15 15 15 14 14 14 14 14 13 13 13 13 13 13 13 13 13 13 13 13 12 12 12 13 13 13 13 13 12 13
14 17 20 21 20 19 19 18 18 17 17 17 16 16 15 15 14 14 14 13 13 13 12 12 13 12 12 12 12 12 12 12 12 12 11 9 11 13 13 13 13 13 12
16 17 18 21 21 20 19 19 18 18 17 17 16 16 16 15 15 14 14 13 13 12 12 12 12 12 12 12 12 11 11 12 11 11 9 8 9 11 12 12 12 12 11
13 16 18 22 21 20 20 19 19 18 18 17 16 16 16 16 15 15 14 13 13 12 12 12 12 12 12 11 11 10 11 11 11 10 8 8 7 10 11 10 11 11 10
12 14 18 23 22 21 20 20 19 19 18 17 17 16 16 16 15 15 14 14 13 12 12 12 12 12 12 11 10 10 11 11 10 9 8 7 7 9 10 10 9 9 10
13 13 18 22 22 22 21 20 20 19 18 17 17 17 17 16 15 15 15 14 14 13 13 12 12 12 12 11 10 10 10 10 10 9 7 7 7 9 9 9 9 9 9
15 13 16 22 22 21 21 20 20 19 18 17 17 17 17 16 16 15 15 15 14 14 13 13 12 11 11 11 9 9 10 9 8 8 7 7 8 8 8 8 8 8 8
11 11 12 16 19 20 21 20 19 19 18 18 17 17 17 16 16 16 16 16 15 15 14 13 12 12 11 10 9 8 8 8 8 6 6 7 8 8 8 8 8 8 7
9 10 9 11 14 15 17 19 19 19 18 18 17 17 16 16 16 16 16 16 16 15 15 14 13 12 11 10 9 8 8 7 7 6 6 7 9 8 9 9 8 7 7
8 9 9 10 10 12 14 17 18 18 18 18 17 17 16 14 14 15 15 16 16 16 15 15 14 13 11 9 8 8 7 6 7 6 7 9 10 9 9 9 8 8 7
10 10 10 11 11 10 12 12 13 14 15 15 14 15 14 13 13 14 15 17 17 17 16 15 14 13 10 7 7 7 6 8 7 7 9 11 11 11 10 9 9 8 8
11 11 11 11 11 11 8 9 8 9 10 12 14 15 13 12 11 11 11 13 14 14 12 12 11 9 8 7 6 6 7 8 8 9 11 12 13 12 11 11 10 10 9
10 12 12 12 11 11 9 8 8 8 8 8 12 15 12 8 7 7 8 9 10 10 9 8 7 8 8 9 8 7 8 8 9 10 12 14 14 13 12 12 12 11 11
10 12 13 13 13 12 11 9 9 9 9 11 12 14 14 9 8 7 8 9 10 11 9 8 7 7 7 7 8 8 7 9 11 12 12 15 16 15 14 13 13 13 12
12 12 12 14 14 13 12 11 10 10 10 11 12 14 16 12 9 8 8 8 9 11 11 10 9 7 7 6 7 8 8 9 10 12 13 14 16 16 16 15 14 14 14
13 12 12 14 14 14 14 13 11 10 11 10 11 15 16 14 12 10 9 9 10 12 11 9 8 7 6 7 8 8 7 8 9 11 13 14 14 17 17 17 16 16 15
10 11 12 12 13 14 14 13 10 10 11 10 12 14 16 16 15 11 9 10 11 11 9 8 7 7 7 7 7 7 6 6 9 11 12 13 14 14 16 18 18 17 17
9 10 11 11 13 14 14 12 11 10 12 10 11 12 15 17 16 12 10 9 11 9 9 10 8 7 7 7 7 6 6 7 7 8 9 11 14 15 15 17 19 19 19
8 9 10 10 11 11 10 8 8 9 10 10 11 12 14 15 16 13 10 9 10 9 9 9 9 8 7 7 7 6 6 7 7 8 9 9 12 15 16 16 16 17 20
6 7 9 10 10 9 8 9 10 11 10 10 11 12 15 14 15 13 11 10 11 11 11 11 9 9 8 5 3 3 4 6 8 8 8 8 10 13 14 15 15 15 15
5 7 8 10 10 10 10 11 10 10 9 9 9 11 14 14 15 14 13 11 11 10 11 11 8 7 7 7 5 3 3 4 7 9 8 9 10 9 11 14 15 15 15
5 6 7 8 9 10 10 7 5 4 4 6 8 10 13 15 15 14 14 12 12 11 11 13 11 11 9 8 7 6 5 7 4 4 8 10 10 9 9 9 13 15 16
5 5 5 7 8 8 9 9 10 10 10 12 11 11 11 13 14 15 14 14 13 11 11 12 12 10 9 8 7 7 6 4 4 4 4 6 9 10 10 9 10 13 16
4 4 4 5 6 6 8 10 12 12 11 9 8 9 11 12 13 14 14 13 13 12 12 12 12 11 10 9 8 5 6 5 4 4 5 4 5 7 9 9 8 9 13
4 4 4 4 6 6 7 9 10 12 11 9 9 10 10 9 11 13 14 13 14 12 13 13 13 13 12 11 9 7 6 5 6 6 7 6 6 6 7 7 8 9 11
Wind_Direction
181 176 173 167 164 161 158 155 152 149 145 142 140 138 135 132 130 128 128 128 127 125 122 121 119 116 114 114 113 111 109 104 101 99 100 100 100 99 95 91 86 82 84
160 169 171 168 166 164 162 158 155 152 150 147 145 143 141 139 137 136 135 133 132 130 128 126 124 121 120 119 118 115 112 107 102 99 98 99 101 100 98 96 94 90 87
154 166 169 169 168 166 163 159 157 155 155 153 150 148 147 146 145 143 141 139 136 134 134 133 129 128 127 126 124 121 117 113 107 102 97 93 102 104 100 98 96 92 90
158 165 168 170 169 168 166 163 161 159 159 158 156 154 153 152 151 150 149 147 142 140 138 137 135 134 134 133 129 125 122 116 111 107 96 94 105 109 104 101 99 98 96
159 165 169 171 172 171 170 169 167 165 163 162 162 161 160 158 157 155 153 152 149 147 144 142 140 140 140 138 133 129 127 118 113 108 101 100 106 115 110 106 103 102 101
161 165 171 173 174 174 174 173 171 169 168 167 168 168 168 165 162 160 157 155 153 151 149 148 148 147 146 144 139 136 131 123 113 111 112 113 114 121 119 116 112 109 106
162 168 173 175 177 177 177 176 174 173 172 172 172 172 172 170 168 165 162 159 160 159 157 156 156 154 153 149 145 142 137 129 120 122 126 126 128 129 129 126 122 120 113
164 169 175 178 179 180 180 179 178 177 177 177 177 177 177 176 174 172 170 166 166 166 164 164 163 162 160 155 150 147 143 133 128 133 138 145 145 141 140 137 133 129 124
162 166 175 181 181 182 183 182 181 181 182 182 182 181 181 180 180 179 178 175 173 172 171 171 171 171 170 166 162 157 152 142 137 146 154 160 158 155 153 151 148 141 135
161 168 174 177 180 183 185 185 185 185 185 186 185 183 182 182 183 183 183 183 180 178 177 177 179 180 179 178 174 168 159 151 150 161 169 171 170 170 167 163 161 156 152
172 176 177 178 178 180 184 188 187 187 189 188 188 186 183 183 183 184 185 187 186 185 184 185 186 188 187 189 186 180 173 168 166 175 185 185 182 181 176 174 174 174 173
186 187 184 184 183 180 186 187 188 190 190 189 188 186 183 182 183 184 187 189 191 190 191 191 191 192 192 190 195 192 183 184 184 191 199 196 193 193 191 189 189 190 189
191 189 189 189 187 185 188 184 186 188 188 189 187 185 182 181 184 185 186 190 193 192 191 193 192 192 191 192 196 198 198 196 200 203 206 204 203 204 204 201 200 202 202
194 196 194 192 190 192 190 190 188 189 190 192 193 188 184 184 187 187 189 189 189 187 184 187 188 194 199 205 208 208 207 202 205 207 211 210 209 210 210 209 209 211 212
201 204 198 194 194 194 192 194 193 195 195 195 193 195 191 190 193 193 194 191 192 188 185 185 190 197 205 216 218 213 213 208 209 209 211 212 213 214 215 216 217 218 218
210 209 202 198 199 195 196 199 197 197 196 195 198 198 196 196 195 194 198 196 196 194 193 192 194 198 207 212 218 216 216 214 212 211 211 213 215 216 220 223 223 223 224
215 211 206 203 201 199 200 201 201 198 197 199 201 201 200 199 197 197 200 202 200 197 194 194 199 199 208 214 221 220 216 216 212 211 212 212 215 218 222 227 227 227 228
216 211 209 209 205 204 204 203 202 201 199 202 202 202 203 202 199 197 204 207 198 194 192 195 197 199 210 212 217 224 222 217 215 213 212 213 213 217 222 227 230 230 232
219 213 209 209 206 206 207 205 204 203 203 204 203 203 205 204 201 199 207 209 196 194 197 202 201 198 206 213 217 223 223 219 218 217 216 216 214 215 218 224 227 230 232
223 216 211 210 208 206 206 206 206 208 210 207 206 206 204 205 203 202 207 207 199 198 201 202 202 202 206 207 216 226 228 226 221 221 221 220 219 218 218 220 223 228 231
231 220 215 211 209 202 200 201 204 211 212 212 211 207 204 204 203 203 208 207 205 205 206 202 199 203 211 189 188 240 261 242 235 231 224 222 223 221 218 220 220 223 228
237 225 220 216 210 204 204 206 208 209 211 214 213 210 206 205 204 205 207 208 208 209 206 203 200 202 208 189 179 182 249 268 246 233 225 225 226 222 222 222 220 220 221
254 239 227 223 218 212 209 202 200 200 204 209 215 214 211 209 207 206 208 207 207 207 212 210 204 202 211 205 194 187 200 230 248 246 227 226 225 223 225 222 221 221 220
260 256 244 229 223 218 208 200 195 204 213 216 216 215 214 210 209 209 209 207 208 210 212 212 210 209 202 210 214 219 217 190 202 249 255 232 226 227 226 224 222 220 218
271 264 256 247 232 223 216 211 207 215 221 221 218 214 215 213 212 211 210 209 210 213 214 212 211 210 210 210 209 212 225 231 222 218 251 244 237 233 227 225 222 219 218
300 296 283 262 246 230 220 218 213 220 225 222 220 218 217 218 215 213 213 212 212 214 216 215 214 212 215 216 215 212 207 211 215 214 233 241 241 241 229 224 222 221 217
Height
1488 1490 1492 1494 1496 1498 1500 1502 1503 1504 1506 1507 1508 1509 1510 1511 1512 1513 1514 1515 1516 1517 1517 1518 1519 1519 1519 1520 1520 1521 1521 1522 1522 1522 1522 1523 1523 1523 1523 1523 1524 1524 1524
1486 1488 1491 1493 1495 1497 1499 1501 1502 1504 1505 1506 1507 1509 1509 1510 1511 1513 1514 1515 1516 1516 1517 1518 1518 1519 1519 1520 1520 1521 1521 1522 1522 1522 1523 1523 1523 1523 1523 1524 1524 1524 1524
1485 1487 1489 1492 1494 1496 1498 1500 1501 1503 1504 1505 1507 1508 1509 1510 1511 1512 1513 1514 1515 1516 1517 1517 1518 1518 1519 1520 1520 1521 1521 1522 1522 1523 1523 1523 1524 1524 1524 1524 1524 1524 1524
1485 1487 1488 1490 1493 1495 1497 1499 1500 1502 1503 1505 1506 1507 1508 1509 1510 1511 1512 1513 1514 1515 1516 1517 1517 1518 1519 1519 1520 1521 1521 1522 1522 1523 1523 1524 1524 1524 1524 1524 1525 1525 1525
1484 1486 1487 1489 1491 1494 1496 1497 1499 1501 1502 1503 1505 1506 1507 1508 1509 1510 1512 1512 1513 1514 1515 1516 1517 1517 1518 1519 1520 1520 1521 1521 1522 1523 1523 1524 1524 1524 1525 1525 1525 1525 1525
1483 1485 1486 1488 1490 1492 1494 1496 1498 1499 1501 1502 1504 1505 1506 1507 1508 1509 1510 1511 1512 1513 1514 1515 1516 1517 1517 1518 1519 1520 1521 1521 1522 1522 1523 1523 1524 1524 1524 1525 1525 1525 1525
1481 1483 1485 1487 1489 1491 1493 1495 1496 1498 1499 1501 1502 1503 1505 1506 1507 1508 1509 1510 1511 1512 1513 1514 1515 1516 1517 1518 1519 1520 1520 1521 1521 1522 1523 1523 1524 1524 1524 1524 1525 1525 1525
1480 1482 1484 1486 1488 1490 1492 1493 1495 1496 1498 1499 1501 1502 1503 1504 1505 1506 1507 1508 1510 1511 1512 1513 1514 1515 1516 1517 1518 1519 1520 1520 1521 1522 1522 1523 1523 1524 1524 1524 1524 1525 1525
1479 1481 1482 1484 1486 1488 1490 1492 1493 1495 1496 1497 1499 1500 1501 1503 1504 1505 1506 1507 1508 1509 1510 1512 1513 1514 1515 1516 1517 1518 1519 1520 1521 1521 1522 1522 1523 1523 1523 1524 1524 1524 1525
1478 1479 1481 1482 1484 1486 1488 1490 1492 1493 1494 1496 1497 1498 1499 1501 1502 1503 1504 1505 1506 1508 1509 1510 1512 1513 1514 1515 1516 1517 1518 1519 1520 1520 1521 1521 1522 1522 1522 1523 1523 1523 1524
1476 1477 1479 1480 1482 1484 1486 1488 1489 1491 1492 1494 1495 1496 1497 1498 1500 1501 1502 1503 1505 1506 1507 1509 1510 1511 1513 1514 1515 1516 1517 1518 1518 1519 1520 1520 1521 1521 1522 1522 1522 1522 1523
1473 1475 1476 1478 1479 1481 1483 1484 1486 1488 1489 1491 1492 1493 1495 1496 1497 1498 1500 1501 1502 1503 1505 1507 1508 1510 1511 1512 1513 1514 1515 1516 1517 1518 1518 1519 1520 1520 1520 1521 1521 1521 1521
1470 1472 1473 1475 1477 1478 1479 1481 1482 1484 1486 1487 1489 1491 1492 1493 1494 1496 1497 1498 1500 1501 1502 1504 1506 1507 1508 1510 1511 1512 1513 1514 1515 1516 1516 1517 1518 1518 1519 1519 1519 1520 1520
1467 1468 1470 1472 1473 1474 1476 1477 1478 1480 1482 1483 1485 1487 1488 1490 1491 1492 1494 1495 1497 1498 1499 1501 1502 1504 1506 1507 1508 1509 1510 1511 1512 1513 1514 1515 1516 1516 1517 1517 1517 1517 1518
1463 1464 1466 1468 1469 1471 1472 1473 1474 1476 1478 1480 1482 1483 1484 1486 1487 1489 1490 1492 1493 1494 1496 1497 1499 1501 1503 1504 1505 1506 1507 1508 1509 1510 1511 1512 1513 1514 1514 1515 1515 1515 1516
1459 1460 1462 1463 1464 1466 1467 1469 1470 1472 1474 1475 1477 1479 1480 1482 1483 1485 1486 1487 1489 1491 1492 1494 1496 1498 1499 1501 1502 1503 1504 1505 1506 1507 1508 1509 1510 1511 1512 1512 1512 1513 1513
1454 1456 1457 1458 1460 1461 1462 1464 1466 1467 1469 1471 1472 1474 1476 1477 1479 1481 1482 1483 1485 1487 1489 1491 1493 1494 1495 1497 1498 1499 1500 1501 1502 1503 1504 1505 1506 1507 1508 1509 1509 1509 1510
1449 1450 1451 1453 1454 1456 1457 1459 1461 1462 1464 1465 1467 1469 1471 1473 1475 1476 1477 1479 1481 1483 1484 1486 1488 1490 1491 1492 1494 1495 1496 1497 1498 1499 1500 1501 1502 1503 1504 1504 1505 1506 1506
1444 1445 1446 1447 1448 1450 1452 1454 1456 1457 1459 1460 1462 1464 1465 1467 1469 1471 1473 1474 1476 1478 1480 1482 1483 1485 1486 1488 1489 1491 1492 1493 1494 1495 1496 1496 1497 1498 1499 1500 1501 1501 1502
1440 1440 1441 1442 1443 1445 1447 1449 1451 1452 1453 1454 1456 1457 1460 1462 1464 1466 1468 1470 1472 1473 1474 1476 1478 1480 1482 1484 1486 1487 1488 1489 1489 1490 1490 1491 1492 1493 1493 1494 1495 1496 1497
1435 1435 1436 1437 1438 1440 1441 1442 1444 1445 1446 1448 1449 1451 1454 1456 1458 1460 1462 1464 1466 1467 1468 1470 1473 1475 1477 1480 1482 1482 1483 1483 1483 1484 1485 1485 1486 1487 1488 1488 1489 1490 1491
1430 1430 1431 1431 1432 1434 1434 1436 1437 1439 1440 1442 1443 1445 1447 1449 1451 1453 1455 1457 1459 1461 1463 1465 1467 1469 1471 1474 1476 1477 1477 1478 1476 1477 1478 1478 1479 1480 1481 1482 1483 1484 1485
1426 1426 1426 1426 1427 1428 1429 1431 1433 1434 1436 1437 1438 1439 1440 1443 1445 1447 1449 1451 1453 1455 1456 1458 1461 1462 1464 1467 1469 1471 1471 1468 1469 1469 1470 1471 1472 1473 1474 1475 1476 1478 1478
1422 1422 1421 1422 1422 1422 1424 1425 1425 1426 1427 1428 1430 1431 1433 1436 1438 1440 1442 1444 1446 1448 1449 1452 1454 1456 1458 1459 1462 1463 1464 1463 1464 1462 1463 1464 1466 1467 1468 1469 1470 1471 1472
1418 1418 1417 1417 1417 1418 1418 1419 1419 1420 1421 1423 1424 1425 1427 1429 1430 1433 1435 1437 1439 1441 1443 1445 1447 1449 1451 1452 1453 1455 1456 1457 1458 1458 1457 1458 1459 1460 1461 1462 1463 1464 1465
1415 1414 1413 1412 1412 1412 1412 1413 1414 1414 1416 1417 1417 1418 1420 1422 1423 1425 1428 1430 1431 1433 1435 1437 1439 1441 1443 1444 1446 1447 1448 1449 1449 1450 1450 1450 1451 1453 1454 1456 1456 1457 1458